AirNav   Pilot Hours Calculator
 
 1164 users online  

48NE Valley Fire/Rescue District & Emergency Service Heliport
Valley, Nebraska, USA

GOING TO VALLEY?


FAA INFORMATION EFFECTIVE 30 JANUARY 2020

Location

FAA Identifier: 48NE
Lat/Long: 41-18-39.9970N 096-20-51.0870W
41-18.666617N 096-20.851450W
41.3111103,-96.3475242
(estimated)
Elevation: 1140 ft. / 347 m (estimated)
Variation: 06E (1985)
Time zone: UTC -6 (UTC -5 during Daylight Saving Time)
Zip code: 68064

Heliport Operations

Heliport use: Private use. Permission required prior to landing
Activation date: 12/1982
Control tower: no
ARTCC: MINNEAPOLIS CENTER
FSS: COLUMBUS FLIGHT SERVICE STATION
Attendance: ON CALL
Wind indicator: lighted
Segmented circle: no
SEGMENTED TRIANGLE- WITH LETTER 'H'.
Beacon: white-green-yellow (heliport)
Operates sunset to sunrise.

Heliport Communications

WX AWOS-3 at FET (11 nm NW): 121.275 (402-727-9135)
WX AWOS-3P at AHQ (12 nm W): 125.975 (402-443-4030)
WX AWOS-3 at BTA (12 nm NE): 120.225 (402-426-0448)
WX AWOS-3 at MLE (13 nm SE): 118.25 (402-895-6778)

Nearby radio navigation aids

VOR radial/distance  VOR name  Freq  Var
SCBr138/21.7SCRIBNER VOR/DME111.0006E
OVRr279/28.9OMAHA VORTAC116.3008E
LNKr028/29.3LINCOLN VORTAC116.1009E

 
NDB name  Hdg/Dist  Freq  Var  ID
WAHOO063/12.140006EAHQ .- .... --.-
PLATTSMOUTH313/29.532905EPMV .--. -- ...-

Heliport Services

Runway Information

Helipad H1

Dimensions: 25 x 25 ft. / 8 x 8 m
Surface: concrete, in good condition
Runway edge lights: low intensity
Latitude: 41-18.666617N
Longitude: 096-20.851450W
Elevation: 1140.0 ft.
Traffic pattern: leftleft

Heliport Ownership and Management from official FAA records

Ownership: Publicly-owned
Owner: VALLEY FIRE/RESCUE DIST NO 5
210 W. CHURCH BOX 554
VALLEY, NE 68064-0554
Phone 402-359-5552
Manager: AARON UECKERT
210 W. CHURCH BOX 554
VALLEY, NE 68064-0554
Phone 402-306-7385
OR 402-359-5243.

Additional Remarks

A52-H1 30' BLDG 64' SW; 65' BLDG-L 64' NE.
FOR CD CTC OMAHA APCH AT 402-682-4395.

Instrument Procedures

There are no published instrument procedures at 48NE.

Some nearby airports with instrument procedures:

KFET - Fremont Municipal Airport (11 nm NW)
KAHQ - Wahoo Municipal Airport (12 nm W)
KBTA - Blair Municipal Airport (12 nm NE)
KMLE - Millard Airport (13 nm SE)
KOMA - Eppley Airfield (20 nm E)
 
Loc | Ops | Rwys | IFR | FBO | Links
Com | Nav | Svcs | Stats | Notes

Silverhawk Aviation, Inc.
AirBoss

 
Area around 48NE (Valley Fire/Rescue District & Emergency Service Heliport)
 
Road maps at: MapQuest Bing Google
 
Aerial photo
No photo
 
Sectional chart

 
Airport distance calculator
Flying to Valley Fire/Rescue District & Emergency Service Heliport? Find the distance to fly.

From to 48NE

Sunrise and sunset
Times for 17-Feb-2020
 Local
(UTC-6)
 Zulu
(UTC)
Morning civil twilight06:5012:50
Sunrise07:1913:19
Sunset18:0000:00
Evening civil twilight18:2900:29

Current date and time
Zulu (UTC)  17-Feb-2020 22:37:32
Local (UTC-6)  17-Feb-2020 16:37:32
 
METAR
KFET 
11nm NW 
172215Z AUTO 32020G23KT 10SM OVC016 02/M01 A2992 RMK AO2 T00201006
KAHQ 
12nm W 
172215Z AUTO 34020G26KT 10SM SCT020 04/M01 A2991 RMK AO2 T00371011
KBTA 
12nm NE 
172215Z AUTO 32020G30KT 10SM OVC010 01/M01 A2988 RMK AO2 T00051015
KMLE 
13nm SE 
172215Z AUTO 34014G21KT 10SM OVC015 03/M02 A2990 RMK AO2 T00271020
KOMA 
20nm E 
172152Z 32021G29KT 10SM OVC013 02/M01 A2986 RMK AO2 PK WND 32029/2150 RAE09 SLP118 P0000 T00171011
TAF
NOTAMs
Click for the latest NOTAMs
NOTAMs are issued by the DoD/FAA and will open in a separate window not controlled by AirNav.

 

 
 

Would you like to see your business listed on this page?

 If your business provides an interesting product or service to pilots, flight crews, aircraft, or users of the Valley Fire/Rescue District & Emergency Service Heliport, you should consider listing it here.  To start the listing process, click on the button below
 
Add a business
 

Other Pages about Valley Fire/Rescue District & Emergency Service Heliport

Update a link
 
Copyright © AirNav, LLC. All rights reserved. Privacy Policy  Contact